Showing default

HORYU 2, 38340

Orbit data source: Space-Track

HORYU 2, 38340 is a payload satellite owned by Kyutech (JP) in SSO that was launched on Thu, 17 May 2012 UTC via an H-IIA 202 launch vehicle from the Tanegashima Space Center (TNSTA). Payload-class satellites include a variety of spacecraft equipped with specific instruments for various scientific and technological missions. These include communications satellites like Starlink; space stations such as the ISS; scientific satellites like the Hubble; Earth observation satellites from companies like Planet Labs, Umbra, and HawkEye 360; GPS; miniature CubeSats for education and research; and military/defense satellites.

Loading next visibility...
Identifier
38340, 2012-025D
Orbit
SSO
Country
Flag of JPJP / JPN
Related business
Manufacturer
Kyutech
Mission
Non-operational Amateur Technology
Bus & Motor
HORYU, Unknown motor
Mass
7 kg wet, 7 kg dry
Launch date (UTC)
2012-05-17 (13 years ago)
Launch vehicle
H-IIA 202
Launch site
Tanegashima Space Center (TNSTA)
Object type
Payload
Rocket body
Debris
Shape & HBR
Box, 0.1 m
Radar Cross Section
0.135 m², Small (<0.1 m²)

Expand to show TLE details & history
Last TLE update: 11 hours ago

TLE from 11 hours ago
0 HORYU 2
1 38340U 12025D   25297.87782952  .00006517  00000-0  70111-3 0  9993
2 38340  98.1929  56.9848 0007862 226.1791 133.8775 14.88838782713685
Epoch: 2025-10-24T21:04Z
TLE epoch observation values (Epoch: 2025-10-24T21:04:04.470Z)
Latitude
-0.00008°
Longitude
67.44977°
Altitude
608.394 km
Speed
7.553 km/s
True Right ascension
03h 47m 56s
True Declination
0° 00' 00"
Sunlit
Object was in full shadow at epoch
Visualization orbit readout
Latitude
Unknown
Longitude
Unknown
Altitude
Unknown
Speed
Unknown
Apparent Right ascension
Unknown
Apparent Declination
Unknown
Sunlit
N/A
Visualization observer readout
Local Sidereal Time
03:27:08
Azimuth
Unknown
Elevation
Unknown
Doppler factor
Unknown
Orbital elements
Apogee altitude
604.09 km
Perigee altitude
593.12 km
Semi-major axis
6,976.742 km
Eccentricity
0.00079
Inclination
98.1929°
RAAN
56.9848°
Arg. of periapsis
226.1791°
True anomaly
133.9424°
Mean anomaly
133.8775°
Eccentric anomaly
133.90995°
Mean motion
3.72447 °/min
Orbital period
96.66 mins
BSTAR
0.00070111
Loading maneuver chart data...
Computing Atmospheric mass density...

Documentation

Showing up to 5 results
|